Retour au catalogue

SL-16 DEB

ActifLEO
NORAD 23706·DEBRIS·🇷🇺 Russia

Lancé Oct 31, 1995 depuis Baikonur Cosmodrome

Loading…

Prochains Passages (prochaines 24 heures)

TLE

FraisSource: Space-Track

Époque: Sep 14, 2026, 10:30 UTC

1 23706U 95058C   26257.43752775  .00000037  00000-0  73992-4 0  9991
2 23706  70.9978 259.7651 0201333 276.6134 235.4585 13.74454912547587

Suivez SL-16 DEB en temps réel avec AllMySat

Download on the App Store